Details From KOTH - North Bend Muni
To KBOK - Brookings State
Flight Number -
Tags generated
Created
Modified
Stats Distance 81 nm / 150 km
Max Altitude 5,100 ft / 1,554 m
Waypoints 3
Social Downloads 1
Likes 0
Share VATSIM

Download

Looking for another format? Having issues loading an existing format? Contact us
Advertisement - Login to hide

Notes

Basic altitude profile: - Ascent Rate: 2500ft/min - Ascent Speed: 250kts - Cruise Altitude: 35000ft - Cruise Speed: 420kts - Descent Rate: 1500ft/min - Descent Speed: 250kts Options: - Use NATs: yes - Use PACOTS: yes - Use low airways: yes - Use high airways: yes

Route

KOTH ROOTY KBOK

ID Type Via Altitude Latitude Longitude Leg Dist Tot Dist Heading (true) Name
O KOTH APT - 0 ft / 0 m 43.41738˚ -124.24472˚ - 0 nm - North Bend Muni
ROOTY FIX - 5,100 ft / 1,554 m 42.47222˚ -124.21065˚ 56 nm 56 nm 178° / 178° -
O KBOK APT - 0 ft / 0 m 42.07386˚ -124.28978˚ 24 nm 80 nm 188° / 188° Brookings State

Altitude Profile

Advertisement - Login to hide

KOTH

Details ICAO KOTH (OTH)
Name North Bend Muni
Region United States
Timezone America/Los_Angeles (UTC-7.0)
Stats Elevation 17 ft / 5 m (AMSL)
Location 43.417379° -124.244722°
Runways 3
Magnetic Variation 14.987° E

METAR

KOTH 240156Z 30005KT 10SM OVC027 14/11 A2998 RMK AO2 SLP152 T01390106

Decode

TAF

KOTH 232343Z 2400/2424 32010KT P6SM FEW015 OVC025 FM240500 VRB03KT 5SM -DZ BR OVC015 FM241600 30004KT P6SM OVC025 FM242200 33012G18KT P6SM FEW025

Decode

Departure Runways

ID Width Length Bearing (true) Bearing (mag) Surface Threshold Offset Overrun Length
04 150 ft / 46 m 5,312 ft / 1,619 m 60.58° 45.59° Asphalt 0 ft / 0 m 0 ft / 0 m
13 150 ft / 46 m 4,472 ft / 1,363 m 149.71° 134.72° Asphalt 0 ft / 0 m 0 ft / 0 m
16 150 ft / 46 m 2,324 ft / 708 m 179.29° 164.30° Asphalt 0 ft / 0 m 350 ft / 107 m
22 150 ft / 46 m 5,312 ft / 1,619 m 240.59° 225.60° Asphalt 0 ft / 0 m 1,000 ft / 305 m
31 150 ft / 46 m 4,472 ft / 1,363 m 329.72° 314.73° Asphalt 0 ft / 0 m 0 ft / 0 m
34 150 ft / 46 m 2,324 ft / 708 m 359.29° 344.30° Asphalt 0 ft / 0 m 0 ft / 0 m

KBOK

Details ICAO KBOK
Name Brookings State
Region United States
Timezone America/Los_Angeles (UTC-7.0)
Stats Elevation 459 ft / 140 m (AMSL)
Location 42.073864° -124.289776°
Runways 1
Magnetic Variation 14.685° E

METAR

KBOK 240219Z AUTO 00000KT 10SM BKN014 OVC018 12/10 A2998 RMK AO2

Decode

TAF

Not found

Destination Runways

ID Width Length Bearing (true) Bearing (mag) Surface Threshold Offset Overrun Length
12 59 ft / 18 m 2,903 ft / 885 m 143.45° 128.77° Asphalt 0 ft / 0 m 230 ft / 70 m
30 59 ft / 18 m 2,903 ft / 885 m 323.45° 308.77° Asphalt 0 ft / 0 m 230 ft / 70 m